Preview of NWS' New Version of Forecast
This preview is not operational and should not be used for support decisions.

Regional Weather Roundup (RWR)

Issued by National Weather Service (NWS)

                            
000
ASUS44 KMEG 180910
RWRTN 
TENNESSEE HOURLY STATE WEATHER ROUNDUP
NATIONAL WEATHER SERVICE MEMPHIS TN
400 AM CDT MON MAR 18 2019

TNZ002-004-019-021-049-052-054-088>092-181000-
WEST TENNESSEE
  
CITY           SKY/WX    TMP DP  RH WIND       PRES   REMARKS
MEMPHIS INTL   FAIR      46  28  49 NE9       30.29F                  
NWS MEMPHIS      N/A     44 N/A N/A MISG        N/A                   
JACKSON        FAIR      40  27  59 NE6       30.32S                  
DYERSBURG      CLOUDY    44  32  62 E6        30.33F                  
SOMERVILLE     CLOUDY    41  28  60 CALM      30.28F                  
COVINGTON      PTCLDY    41  32  70 NE5       30.32S                  
PARIS          CLOUDY    34  28  80 N6        30.31F WCI  29          
HUNTINGDON     CLOUDY    36  30  80 NE5       30.30F WCI  32          
LEXINGTON      CLEAR     41  28  60 CALM      30.29F                  
SELMER         CLEAR     41  28  60 NE6       30.28F                  
SAVANNAH       CLEAR     36  30  80 CALM      30.29S                  
$$

TNZ008-025-027-028-033-062-065-066-181000-
NORTH MIDDLE TENNESSEE
  
CITY           SKY/WX    TMP DP  RH WIND       PRES   REMARKS
NASHVILLE      FAIR      40  27  59 N5        30.31F                  
DICKSON        SUNNY     37  28  70 NE5       30.28F WCI  34          
CLARKSVILLE    FAIR      32  26  78 N3        30.32F                  
LEBANON        SUNNY     34  28  80 CALM      30.29F                  
SMYRNA         FAIR      39  29  67 N7        30.32F WCI  34          
MURFREESBORO   PTSUNNY   37  28  70 CALM      30.29S                  
COOKEVILLE     PTCLDY    32  28  86 CALM      30.27S                  
LIVINGSTON     MOSUNNY   36  27  69 N8        30.26S WCI  29          
GALLATIN       SUNNY     34  28  80 CALM      30.33F                  
CROSSVILLE     FAIR      34  25  69 N6        30.23F WCI  29          
ROCKWOOD       SUNNY     36  27  69 N9        30.21S WCI  29          
$$

TNZ061-075-076-078-094-096-097-181000-
SOUTH MIDDLE TENNESSEE
  
CITY           SKY/WX    TMP DP  RH WIND       PRES   REMARKS
LAWRENCEBURG   SUNNY     39  28  65 NE6       30.27F WCI  35          
LEWISBURG      SUNNY     28  27  93 CALM      30.29F                  
FAYETTEVILLE   CLEAR     39  30  70 N9        30.26F WCI  33          
TULLAHOMA      CLEAR     37  28  70 N7        30.26F WCI  32          
WINCHESTER     CLEAR     39  28  65 N3        30.26S                  
MCMINNVILLE    CLEAR     37  28  70 N3        30.28S                  
COLUMBIA       CLEAR     36  30  80 CALM      30.28F                  
SHELBYVILLE    CLEAR     37  28  70 CALM      30.29S                  
$$

TNZ017-018-042-046-047-181000-
NORTHEAST TENNESSEE
  
CITY           SKY/WX    TMP DP  RH WIND       PRES   REMARKS
TRI CITIES     FAIR      33  28  81 CALM      30.19R                  
ELIZABETHTON     N/A     28  27  93 CALM      30.18R                  
GREENEVILLE    SUNNY     37  23  56 CALM      30.19R                  
$$

TNZ012-013-036-069-073-074-181000-
CENTRAL EAST TENNESSEE
  
CITY           SKY/WX    TMP DP  RH WIND       PRES   REMARKS
KNOXVILLE      FAIR      42  25  50 N7        30.22F                  
OAK RIDGE      FAIR      43  26  51 N7        30.25S                  
DOWNTOWN KNOXV CLEAR     41  32  70 CALM      30.24S                  
GATLINBURG     CLEAR     32  28  86 CALM      30.22F                  
MORRISTOWN     PTCLDY    41  25  52 VRB3      30.20S                  
JACKSBORO      PTCLDY    39  27  60 VRB5      30.27R                  
$$

TNZ083-085-099-181000-
SOUTHEAST TENNESSEE
  
CITY           SKY/WX    TMP DP  RH WIND       PRES   REMARKS
CHATTANOOGA    FAIR      42  27  55 N9        30.25S                  
DAYTON         SUNNY     41  28  60 N5        30.25S                  
$$

SKY/WX REPORTED AS FAIR MEANS FEW OR NO CLOUDS BELOW
12 THOUSAND FEET.